Regional Weather Roundup
Issued by NWS

Home | Current Version | Previous Version | Text Only | Print | Product List | Glossary On
Versions: 1 2 3 4 5 6 7 8 9 10 11 12 13 14 15 16 17 18 19 20 21 22 23 24 25 26 27 28 29 30 31 32 33 34 35 36 37 38 39 40 41 42 43 44 45 46 47 48 49 50
000
ASUS43 KLSX 240007
RWRMO

WEATHER SUMMARY FOR MISSOURI
NATIONAL WEATHER SERVICE SPRINGFIELD MO
700 PM CDT WED AUG 23 2017

NOTE: "FAIR" INDICATES FEW OR NO CLOUDS BELOW 12,000 FEET WITH NO
       SIGNIFICANT WEATHER AND/OR OBSTRUCTIONS TO VISIBILITY.
       CURRENT SKY AND/OR WEATHER CONDITIONS ARE NOT AVAILABLE FOR
       CHILLICOTHE AND FARMINGTON.

MOZ001>031-035>038-043-044-053-054-240100-
...NORTHERN AND WESTERN MISSOURI...

CITY           SKY/WX    TMP DP  RH WIND       PRES   REMARKS
KANSAS CTY INT SUNNY     76  56  49 N5        30.06F
6HR MIN TEMP:  75; 6HR MAX TEMP:  79;

KANSAS C DTWN  SUNNY     79  56  45 VRB7      30.05S
6HR MIN TEMP:  77; 6HR MAX TEMP:  81;

LEE`S SUMMIT   SUNNY     75  60  59 E6        30.06F
6HR MIN TEMP:  75; 6HR MAX TEMP:  78;

ST JOSEPH      SUNNY     76  60  57 NE6       30.05F
6HR MIN TEMP:  76; 6HR MAX TEMP:  81;

CHILLICOTHE      N/A     77  60  55 CALM      30.06F
6HR MIN TEMP:  77; 6HR MAX TEMP:  80;

KIRKSVILLE     CLEAR     77  53  43 NE3       30.06F
6HR MIN TEMP:  77; 6HR MAX TEMP:  80;


$$
MOZ066>068-077>081-088>096-101>105-240100-
...SOUTHWEST MISSOURI...

CITY           SKY/WX    TMP DP  RH WIND       PRES   REMARKS
SPRINGFIELD    CLEAR     76  54  46 NE8       30.04S
6HR MIN TEMP:  75; 6HR MAX TEMP:  79;

JOPLIN         SUNNY     78  57  48 NE6       30.04F
6HR MIN TEMP:  78; 6HR MAX TEMP:  82;

BRANSON        PTCLDY    77  55  47 E8        30.04S

$$
MOZ032>034-039>042-045>050-055>058-069>072-240100-
...CENTRAL MISSOURI...

CITY           SKY/WX    TMP DP  RH WIND       PRES   REMARKS
COLUMBIA       CLEAR     74  56  53 NE6       30.05F
6HR MIN TEMP:  74; 6HR MAX TEMP:  79;

JEFFERSON CITY CLEAR     77  57  50 NE5       30.04F
6HR MIN TEMP:  76; 6HR MAX TEMP:  79;

ROLLA          CLEAR     74  56  53 NE5       30.06F
6HR MIN TEMP:  74; 6HR MAX TEMP:  77;

SEDALIA        CLEAR     77  57  50 NE3       30.07S
6HR MIN TEMP:  77; 6HR MAX TEMP:  81;

WHITEMAN AFB   SUNNY     75  56  51 NE5       30.05F
WARRENSBURG    SUNNY     73  59  60 E3        30.06S
OSAGE BEACH    CLEAR     74  59  59 CALM      30.06F

$$
MOZ051-052-059>065-240100-
...EAST CENTRAL MISSOURI...

CITY           SKY/WX    TMP DP  RH WIND       PRES   REMARKS
ST LOUIS INTL  PTCLDY    76  53  44 N9        30.04S
6HR MIN TEMP:  76; 6HR MAX TEMP:  79;

SPIRIT OF STL  PTCLDY    77  55  46 N5        30.03S
6HR MIN TEMP:  77; 6HR MAX TEMP:  80;

ST CHARLES     CLEAR     74  55  51 N6        30.03S
6HR MIN TEMP:  74; 6HR MAX TEMP:  80;


$$
MOZ072>076-082>087-097>100-106>115-240100-
...SOUTH CENTRAL AND SOUTHEAST MISSOURI...

CITY           SKY/WX    TMP DP  RH WIND       PRES   REMARKS
CAPE GIRARDEAU CLEAR     75  56  51 NE6       30.00S
6HR MIN TEMP:  75; 6HR MAX TEMP:  82;

FARMINGTON     CLEAR     74  55  51 NE7       30.04F
6HR MIN TEMP:  74; 6HR MAX TEMP:  78;

POPLAR BLUFF   CLEAR     77  59  53 CALM      29.99S
6HR MIN TEMP:  77; 6HR MAX TEMP:  82;

WEST PLAINS    CLEAR     76  54  46 NE6       30.05S
6HR MIN TEMP:  76; 6HR MAX TEMP:  81;


$$



USA.gov is the U.S. government's official web portal to all federal, state and local government web resources and services.